Regional Weather Roundup
Issued by NWS

Home | Current Version | Previous Version | Graphics & Text | Print | Product List | Glossary On
Versions: 1 2 3 4 5 6 7 8 9 10 11 12 13 14 15 16 17 18 19 20 21 22 23 24 25 26 27 28 29 30 31 32 33 34 35 36 37 38 39 40 41 42 43 44 45 46 47 48 49 50
810
ASUS43 KMPX 241701
RWRMN
WEATHER ROUNDUP FOR MINNESOTA
NATIONAL WEATHER SERVICE TWIN CITIES/CHANHASSEN MN
1200 PM CDT SUN JUL 24 2016


NOTE: "FAIR" INDICATES FEW OR NO CLOUDS BELOW 12,000 FEET WITH NO
SIGNIFICANT WEATHER AND/OR OBSTRUCTIONS TO VISIBILITY. N/A MEANS
CURRENT SKY AND/OR WEATHER CONDITIONS ARE NOT AVAILABLE.

MNZ060>063-068>070-241800-
   Twin Cities Metro

CITY           SKY/WX    TMP DP  RH WIND       PRES   REMARKS
TWIN CITIES    MOSUNNY   82  61  48 W14       29.88S
ST PAUL          N/A     82  63  52 W15G23    29.88R
CRYSTAL        SUNNY     80  60  50 W14G21    29.88R
BLAINE         MOSUNNY   82  63  51 W13G18    29.88R
LAKEVILLE      SUNNY     79  63  57 W8G18     29.90S
EDEN PRAIRIE   SUNNY     81  62  52 W14G21    29.89R
LAKEVILLE      SUNNY     79  63  57 W8G18     29.90S
SOUTH ST PAUL  SUNNY     82  62  52 W12       29.88S
LAKE ELMO      FAIR      81  64  57 W12G18    29.89R
$$
MNZ001>005-007-008-013>017-022>024-027-028-241800-
   Northwest Minnesota

CITY           SKY/WX    TMP DP  RH WIND       PRES   REMARKS
BEMIDJI        MOSUNNY   73  59  60 W22       29.87S
HALLOCK        SUNNY     75  63  64 W16       29.83R
ROSEAU         SUNNY     73  64  73 W14G20    29.82R
WARROAD        PTSUNNY   72  64  78 W10G18    29.81R
CROOKSTON      MOSUNNY   75  64  69 W15G22    29.88S
FOSSTON        SUNNY     72  61  68 W10G16    29.90S
DETROIT LAKES  MOSUNNY   73  61  64 W12       29.94R
MOORHEAD       MOSUNNY   77  63  61 W14       29.92S
PARK RAPIDS    MOSUNNY   75  60  59 W16       29.90R
MAHNOMEN       FAIR      74  62  66 W13G20    29.90S
$$
MNZ006-009>011-018-025>026-241800-
   North Central Minnesota

CITY           SKY/WX    TMP DP  RH WIND       PRES   REMARKS
BAUDETTE       PTSUNNY   74  61  63 NW12G21   29.80R
FLAG ISLAND    PTSUNNY   72  59  64 W22       29.76R
INTL FALLS     PTSUNNY   72  61  68 W12       29.79R
WASKISH        SUNNY     73  63  68 W16       29.83R
BIG FORK       MOSUNNY   75  61  60 W9        29.83S
LONGVILLE      CLOUDY    73  61  64 W12       29.88R
GRAND RAPIDS   MOSUNNY   72  60  66 W10G24    29.87R
CRANE LAKE     CLOUDY    70  61  73 W8        29.79R
ORR            PTSUNNY   72  57  60 W10G20    29.78R
COOK           MOSUNNY   73  61  64 W17G23    29.81R
WALKER         FAIR      72  59  62 W10G20    29.88R
$$
MNZ012-019>021-037-241800-
   Northeast Minnesota

CITY           SKY/WX    TMP DP  RH WIND       PRES   REMARKS
DULUTH         MOSUNNY   78  63  59 W18       29.81R
ELY            MOSUNNY   73  57  56 W14G25    29.78R
HIBBING        MOSUNNY   73  60  63 W14G24    29.82R
EVELETH        MOSUNNY   75  60  60 W15       29.82R
DULUTH HARBOR  MOSUNNY   81  66  61 W17G23    29.78R
TWO HARBORS    MOSUNNY   81  66  61 W13G20    29.76R
SILVER BAY     MOSUNNY   82  63  51 W7        29.74R
GRAND MARAIS     N/A     62  58  86 W7        29.72S
G MARAIS ARPRT MOSUNNY   75  61  60 W7        29.77R
$$
MNZ029>031-032-039>041-046>048-054>057-064-241800-
   West Central Minnesota

CITY           SKY/WX    TMP DP  RH WIND       PRES   REMARKS
FERGUS FALLS   MOSUNNY   73  63  68 NW10G16   29.95S
MORRIS         CLOUDY    77  63  61 NW8       29.95S
ALEXANDRIA     CLOUDY    73  61  65 W15G21    29.97R
ELBOW LAKE     FAIR      73  62  69 NW10      29.96R
WADENA         MOSUNNY   72  61  68 NW10G17   29.92R
GLENWOOD       CLOUDY    72  63  73 W13       29.96R
APPLETON       CLOUDY    75  61  60 NW9       29.96R
BENSON         CLOUDY    73  59  60 N13       29.96S
ORTONVILLE     MOSUNNY   75  61  60 NW14      29.97R
MADISON        CLOUDY    75  61  60 NW10      29.98R
WILLMAR        FAIR      73  64  73 NW12      29.96S
$$
MNZ033>034-036-042>043-049>051-058-059-241800-
   Central Minnesota

CITY           SKY/WX    TMP DP  RH WIND       PRES   REMARKS
ST CLOUD       SUNNY     76  63  64 W17       29.91R
SAUK CENTRE    FAIR      74  60  61 NW13G18   29.94S
PAYNESVILLE    PTSUNNY   72  61  68 W13G18    29.94S
AITKIN         MOSUNNY   77  61  57 W10G16    29.87R
PINE RIVER     MOSUNNY   73  63  68 W8        29.93R
BRAINERD       MOSUNNY   74  61  63 NW10      29.90R
STAPLES        MOSUNNY   73  61  64 NW10      29.91S
LONG PRAIRIE   FAIR      73  59  60 W10       29.94S
LITTLE FALLS   MOSUNNY   73  57  56 NW9G16    29.92R
LITCHFIELD     SUNNY     77  66  69 NW13G18   29.93F
BUFFALO        SUNNY     77  62  60 W15       29.92R
MAPLE LAKE     SUNNY     77  65  65 W9G17     29.92S
HUTCHINSON     SUNNY     76  65  68 W14G22    29.95R
$$
MNZ037-044-045-052-053-241800-
   East Central Minnesota

CITY           SKY/WX    TMP DP  RH WIND       PRES   REMARKS
PRINCETON      MOSUNNY   79  64  61 W14G22    29.90R
MORA           MOSUNNY   75  63  64 W9G20     29.90R
CAMBRIDGE      SUNNY     81  63  54 W15G23    29.87R
RUSH CITY      CLOUDY    79  64  60 NW7       29.87R
MOOSE LAKE     MOSUNNY   77  61  57 W12G18    29.84R
HINCKLEY       PTSUNNY   77  64  65 W13G21    29.86R
CLOQUET        PTSUNNY   77  59  53 W16G23    29.83R
MCGREGOR       MOSUNNY   73  63  68 W10G16    29.87R
$$
MNZ071>073-080-081-089-090-097-098-241800-
   Southwest Minnesota

CITY           SKY/WX    TMP DP  RH WIND       PRES   REMARKS
MONTEVIDEO     CLOUDY    75  64  69 N10       29.98R
GRANITE FALLS  CLOUDY    76  65  67 W9        29.98S
CANBY          CLOUDY    78  63  60 N10       30.00R
MARSHALL       CLOUDY    75  64  68 NW9       29.99S
REDWOOD FALLS  PTSUNNY   75  61  61 NW12G18   29.93F
OLIVIA         MOSUNNY   73  63  68 NW9G16    29.94F
PIPESTONE      MOSUNNY   79  57  47 VRB7G20   30.01S
WINDOM         CLOUDY    77  61  57 NW12G17   29.98S
WORTHINGTON    SUNNY     78  61  55 NW12      30.00S
JACKSON        SUNNY     79  59  50 NW10      29.99S
TRACY          CLOUDY    75  65  71 NW8       29.99R
SLAYTON        SUNNY     76  61  59 N12       30.01S
$$
MNZ065>067-074>077-082>085-091>093-241800-
   South Central Minnesota

CITY           SKY/WX    TMP DP  RH WIND       PRES   REMARKS
MANKATO        SUNNY     79  63  57 NW13G20   29.93F
NEW ULM        MOSUNNY   77  61  57 NW14      29.93F
ST JAMES       SUNNY     73  61  64 NW9       29.95F
FAIRMONT       SUNNY     79  46  31 NW10G18   29.96S
GLENCOE        MOSUNNY   77  67  72 W15G22    29.92S
FARIBAULT      SUNNY     81  64  57 W13       29.92S
OWATONNA       SUNNY     81  61  50 NW13G20   29.93R
WASECA         SUNNY     77  63  61 W14       29.95S
ALBERT LEA     SUNNY     81  64  57 NW7G18    29.94R
$$
MNZ078>079-086>088-094>096-241800-
   Southeast Minnesota

CITY           SKY/WX    TMP DP  RH WIND       PRES   REMARKS
ROCHESTER      SUNNY     81  67  62 NW10G20   29.91R
RED WING       SUNNY     84  64  51 NW10G18   29.86R
STANTON        SUNNY     81  64  57 W12G17    29.89R
DODGE CENTER   SUNNY     81  64  57 NW17      29.93R
WINONA         MOSUNNY   82  66  57 NW10      29.86R
AUSTIN         SUNNY     81  63  54 NW13G22   29.93R
PRESTON        SUNNY     81  66  61 NW14      29.91R
$$
ABBREVIATIONS USED IN REMARKS
   TC - TEMPERATURES IN CELSIUS
  WCI - WIND CHILL INDEX
   HX - HEAT INDEX
  VSB - VISIBILITY
$$




USA.gov is the U.S. government's official web portal to all federal, state and local government web resources and services.